This is the latest recevied weather packets stored in our database for station/object KB4MOX. If no packets are shown the sender has not sent any weather packets the latest 10 day(s).
| Time | Temp. | Humidity | Pressure | Rain* | Wind** | Luminosity | Snow |
|---|---|---|---|---|---|---|---|
| 1787671895 | 30.56° C | 53% | 1018.1 hPa | 0 mm | - | 621 W/m² | - |
| 1787671591 | 30.56° C | 55% | 1018.2 hPa | 0 mm | - | 260 W/m² | - |
| 1787671286 | 30° C | 57% | 1018.2 hPa | 0 mm | - | 200 W/m² | - |
| 1787670985 | 29.44° C | 59% | 1018.3 hPa | 0 mm | - | 100 W/m² | - |
| 1787670681 | 29.44° C | 58% | 1018.2 hPa | 0 mm | - | 102 W/m² | - |
| 1787670376 | 28.89° C | 59% | 1018.2 hPa | 0 mm | - | 78 W/m² | - |
| 1787670075 | 28.89° C | 61% | 1018.4 hPa | 0 mm | - | 94 W/m² | - |
| 1787669775 | 28.89° C | 61% | 1018.3 hPa | 0 mm | - | 69 W/m² | - |
| 1787669470 | 28.33° C | 61% | 1018.4 hPa | 0 mm | - | 67 W/m² | - |
| 1787669166 | 27.78° C | 63% | 1018.3 hPa | 0 mm | - | 64 W/m² | - |
| 1787668862 | 27.78° C | 63% | 1018.2 hPa | 0 mm | - | 89 W/m² | - |
| 1787668558 | 27.22° C | 62% | 1018.2 hPa | 0 mm | - | 174 W/m² | - |
| 1787668254 | 27.22° C | 63% | 1018.2 hPa | 0 mm | - | 87 W/m² | - |
| 1787667953 | 27.22° C | 63% | 1018.4 hPa | 0 mm | - | 145 W/m² | - |
| 1787667648 | 27.22° C | 63% | 1018.1 hPa | 0 mm | - | 141 W/m² | - |
| 1787667344 | 26.67° C | 66% | 1018.2 hPa | 0 mm | - | 132 W/m² | - |
| 1787667044 | 26.67° C | 66% | 1017.9 hPa | 0 mm | - | 97 W/m² | - |
| 1787666740 | 26.11° C | 66% | 1018.2 hPa | 0 mm | - | 78 W/m² | - |
| 1787666439 | 26.11° C | 65% | 1017.8 hPa | 0 mm | - | 61 W/m² | - |
| 1787666135 | 26.11° C | 66% | 1017.9 hPa | 0 mm | - | 58 W/m² | - |
| 1787665830 | 25.56° C | 67% | 1017.8 hPa | 0 mm | - | 112 W/m² | - |
| 1787665525 | 25° C | 69% | 1017.8 hPa | 0 mm | - | 279 W/m² | - |
| 1787665220 | 25° C | 69% | 1017.7 hPa | 0 mm | - | 121 W/m² | - |
| 1787664917 | 24.44° C | 69% | 1017.7 hPa | 0 mm | - | 54 W/m² | - |
| 1787664613 | 24.44° C | 69% | 1017.8 hPa | 0 mm | - | 76 W/m² | - |
* Rain latest hour (hover to see other rain measurements)
** Current wind speed in m/s (hover to see current wind gust speed)